Domov               UVHVVR             MKGP            O straneh              
ZDRAVSTVENO VARSTVO RASTLIN
  MREŽA AGROMET. POSTAJ
 ► PROGNOSTIČNA OBVESTILA
AGROMETEOROLOŠKI PODATKI -
ARSO
OBVLADOVANJE TVEGANJ ZARADI
NEUGODNIH VREMENSKIH RAZMER
  ► NARAVNE NESREČE
  ► SUŠA/MOČA
  ► NAMAKANJE
  ► ŽLED (gozdarstvo)
KARTOGRAFSKI PRIKAZI
SPLETNE POVEZAVE
PROJEKTI IN PUBLIKACIJE

AGROMETEOROLOŠKA MREŽA: VREMENSKE POSTAJE IN FENOLOŠKA OPAZOVANJA

Pregled podatkov za lokacijo Črmljenšak, meteorološka postaja 25166

Pregled senzorjev na lokaciji

ID Ime Zadnja
vrednost
Datum
zadnje
spremembe
Tip
senzorja
4041 Omočenost lista (U) 0 U 24.10.2017 11:00 A730WET
4043 Padavine 0.2 mm (mm) 0 mm 24.10.2017 11:00 Generic 0.2 mm
4048 Temperatura 2 m ( °C) 12,63 °C 24.10.2017 11:00 Generic -40 - +60 °C
4049 Relativna vlaga 2 m (% RH) 52,06 % RH 24.10.2017 11:00 Generic 0 - 100 %

Pregled podatkov zadnjih 24 ur

Zap.
št.
Datum in čas Črmljenšak
Omočenost
lista
Padavine
0.2
mm
Relativna
vlaga
2
m
Temperatura
2
m
0 24.10.2017 10:00 0 0 52,06 12,63
1 24.10.2017 09:30 0 0 51,79 11,89
2 24.10.2017 09:00 0 0 53,33 11,43
3 24.10.2017 08:30 0 0 57,26 10,6
4 24.10.2017 08:00 0 0 61,15 9,23
5 24.10.2017 07:30 0 0 67,72 7,52
6 24.10.2017 07:00 0 0 73,21 6,54
7 24.10.2017 06:30 0 0 75,85 6,15
8 24.10.2017 06:00 0 0 71,5 6,98
9 24.10.2017 05:30 0 0 72,75 6,91
10 24.10.2017 05:00 0 0 72,26 7,13
11 24.10.2017 04:30 0 0 71,89 7,28
12 24.10.2017 04:00 0 0 72,21 7,3
13 24.10.2017 03:30 0 0 70,06 7,74
14 24.10.2017 03:00 0 0 69,79 7,84
15 24.10.2017 02:30 0 0 69,82 7,89
16 24.10.2017 02:00 0 0 68,38 8,13
17 24.10.2017 01:30 0 0 66,72 8,4
18 24.10.2017 01:00 0 0 66,67 8,42
19 24.10.2017 00:30 0 0 66,98 8,45
20 24.10.2017 00:00 0 0 64,81 8,84
21 23.10.2017 23:30 0 0 65,79 8,62
22 23.10.2017 23:00 0 0 68,57 8,11
23 23.10.2017 22:30 0 0 67,62 8,38
24 23.10.2017 22:00 0 0 69,67 8,11
25 23.10.2017 21:30 0 0 68,69 8,21
26 23.10.2017 21:00 0 0 69,11 8,13
27 23.10.2017 20:30 0 0 69,5 8,08
28 23.10.2017 20:00 0 0 69,74 8,13
29 23.10.2017 19:30 0 0 69,11 8,35
30 23.10.2017 19:00 0 0 68,16 8,5
31 23.10.2017 18:30 0 0 67,01 8,74
32 23.10.2017 18:00 0 0 64,08 9,06
33 23.10.2017 17:30 0 0 62,34 9,38
34 23.10.2017 17:00 0 0 65,71 9,21
35 23.10.2017 16:30 0 0 69,79 9,13
36 23.10.2017 16:00 0 0 71,14 9,18
37 23.10.2017 15:30 1 0 72,09 9,23
38 23.10.2017 15:00 2 0 71,58 9,33
39 23.10.2017 14:30 1 0 69,82 9,52
40 23.10.2017 14:00 0 0 71,09 9,67
41 23.10.2017 13:30 3 0 79,78 9,5
42 23.10.2017 13:00 5 0 86,57 9,16
43 23.10.2017 12:30 9 0 88,45 8,69
44 23.10.2017 12:00 7 0,2 87,13 8,47
45 23.10.2017 11:30 8 0 91,55 8,03
© 2011 Ministrstvo za kmetijstvo, gozdarstvo in prehrano. Vse pravice pridržane.